Left ArrowRight Arrow

44.31136, -96.79839

Hourly Observations for June 16, 2024

Temp ( °F °C ) Dew Point ( °F °C ) Humidity (%) Winds ( mph kmh ) Pressure ( in mb ) Visibility ( mi km ) Precip ( " mm )
12:56 am 00:56 Clear 69 20.6 65 18.3 87 87 SSE 12 19 29.65 1004 10 16 0.00 0.00
1:56 am 01:56 Clear 68 20 63 17.2 84 84 S 15 24 29.61 1003 10 16 0.00 0.00
2:56 am 02:56 Clear 67 19.4 63 17.2 87 87 S 14 22 29.58 1002 10 16 0.00 0.00
3:56 am 03:56 Clear 67 19.4 62 16.7 84 84 S 16 26 29.57 1002 10 16 0.00 0.00
4:56 am 04:56 Clear 67 19.4 63 17.2 87 87 S 14 22 29.57 1001 10 16 0.00 0.00
5:56 am 05:56 Sunny 66 18.9 63 17.2 90 90 S 13 20 29.58 1002 10 16 0.00 0.00
6:27 am 06:27 Partly Cloudy with Mist and Fog 66 19 63 17 88 88 S 14 22 29.53 1000 3 4 0.00 0.00
6:42 am 06:42 Partly Cloudy with Mist and Fog 66 19 64 18 94 94 S 13 20 29.53 1000 5 8 0.00 0.00
6:56 am 06:56 Mostly Sunny 68 20 64 17.8 87 87 S 15 24 29.57 1001 10 16 0.00 0.00
7:56 am 07:56 Sunny 71 21.7 66 18.9 84 84 S 16 26 29.58 1002 10 16 0.00 0.00
8:56 am 08:56 Sunny 74 23.3 67 19.4 79 79 S 16 26 29.58 1002 10 16 0.00 0.00
9:28 am 09:28 Mostly Cloudy 75 24 66 19 74 74 SSW 15 24 29.53 1000 10 16 0.00 0.00
9:56 am 09:56 Mostly Cloudy 76 24.4 68 20 77 77 SW 17 28 29.60 1002 10 16 0.00 0.00
10:22 am 10:22 Mostly Sunny 77 25 66 19 69 69 SW 15 24 29.52 1000 10 16 0.00 0.00
10:30 am 10:30 Partly Cloudy 77 25 66 19 69 69 SW 14 22 29.53 1000 7 11 0.00 0.00
10:56 am 10:56 Mostly Cloudy with Haze 77 25 66 18.9 69 69 SW 15 24 29.61 1003 5 8 0.00 0.00
11:22 am 11:22 Partly Cloudy 75 24 64 18 69 69 WSW 18 30 29.56 1001 10 16 0.00 0.00
11:56 am 11:56 Mostly Sunny 77 25 64 17.8 64 64 W 16 26 29.64 1004 10 16 0.00 0.00
12:56 pm 12:56 Partly Cloudy 78 25.6 67 19.4 69 69 W 14 22 29.65 1004 10 16 0.00 0.00
1:56 pm 13:56 Mostly Sunny 82 27.8 66 18.9 58 58 NW 9 15 29.64 1004 10 16 0.00 0.00
2:56 pm 14:56 Sunny 84 28.9 65 18.3 53 53 NW 12 19 29.65 1004 10 16 0.00 0.00
3:56 pm 15:56 Mostly Cloudy 83 28.3 67 19.4 59 59 NNW 18 30 29.66 1004 10 16 0.00 0.00
4:56 pm 16:56 Partly Cloudy 78 25.6 63 17.2 60 60 NNW 16 26 29.71 1006 10 16 0.00 0.00
5:56 pm 17:56 Sunny 77 25 61 16.1 58 58 N 14 22 29.71 1006 10 16 0.00 0.00
6:56 pm 18:56 Sunny 75 23.9 60 15.6 60 60 N 10 17 29.73 1007 10 16 0.00 0.00
7:56 pm 19:56 Sunny 74 23.3 58 14.4 57 57 NNW 12 19 29.76 1008 10 16 0.00 0.00
8:56 pm 20:56 Sunny 71 21.7 51 10.6 49 49 N 9 15 29.77 1008 10 16 0.00 0.00
9:56 pm 21:56 Mostly Clear 67 19.4 49 9.4 52 52 N 7 11 29.81 1010 10 16 0.00 0.00
10:56 pm 22:56 Cloudy 67 19.4 51 10.6 57 57 NNE 3 6 29.82 1010 10 16 0.00 0.00
11:56 pm 23:56 Cloudy 67 19.4 48 8.9 51 51 NNE 6 9 29.80 1009 10 16 0.00 0.00

Powered by Vaisala Xweather